Weather Roundup
Issued by NWS Corpus Christi, TX

Home | Current Version | Previous Version | Text Only | Print | Product List | Glossary On
Versions: 1 2 3 4 5 6 7 8 9 10 11 12 13 14 15 16 17 18 19 20 21 22 23 24 25 26 27 28 29 30 31 32 33 34 35 36 37 38 39 40 41 42 43 44 45 46 47 48 49 50
996
ASUS44 KCRP 222110
HRRCRP

SOUTH TEXAS REGIONAL WEATHER ROUNDUP
NATIONAL WEATHER SERVICE CORPUS CHRISTI TX
300 PM CST SUN JAN 22 2017


TXZ229>244-222200-
...CORPUS CHRISTI AREA OBSERVATIONS...

CITY           SKY/WX    TMP DP  RH WIND       PRES   REMARKS
CORPUS CHRISTI SUNNY     78  27  15 NW35G48   29.79S
NAS CORPUS CHR SUNNY     75  51  43 NW26G35   29.77S
ROCKPORT       SUNNY     75  36  24 NW22G31   29.76S
KINGSVILLE NAS MOSUNNY   78  26  14 NW38G46   29.81S
ALICE          SUNNY     76  22  13 NW26G41   29.81F
ORANGE GROVE   MOSUNNY   77  27  15 NW25G41   29.82R
FALFURRIAS     SUNNY     78  17  10 NW21G38   29.83F
$$

...VICTORIA AREA OBSERVATIONS...

CITY           SKY/WX    TMP DP  RH WIND       PRES   REMARKS
VICTORIA       SUNNY     73  42  32 NW28G37   29.75R
BEEVILLE       FAIR      77  32  19 NW29G36   29.79F
PLEASANTON     SUNNY     74  31  20 NW24G38   29.83R
SAN ANTONIO    SUNNY     72  37  28 NW24G32   29.83R
$$

...LAREDO AREA OBSERVATIONS...

CITY           SKY/WX    TMP DP  RH WIND       PRES   REMARKS
LAREDO         SUNNY     77  19  11 NW25G38   29.89F
COTULLA        SUNNY     76  23  14 NW30G38   29.87S
DEL RIO        SUNNY     71  22  15 NW26G38   29.93
MCALLEN        SUNNY     84  19   9 NW21G38   29.84S
HEBBRONVILLE   SUNNY     74  19  12 NW24G37   29.87F
$$

...OTHER TEXAS OBSERVATIONS...

CITY           SKY/WX    TMP DP  RH WIND       PRES   REMARKS
BROWNSVILLE    SUNNY     82  22  11 NW24G31   29.83S
HOUSTON        MOSUNNY   67  46  47 NW24G41   29.65R
COL. STATION   PTSUNNY   63  44  50 NW26G36   29.73R
AUSTIN         MOSUNNY   69  40  34 NW21G35   29.78S
WACO           SUNNY     65  41  41 NW23G33   29.74R
FORT WORTH     MOSUNNY   66  37  34 NW32G45   29.67R
WICHITA FALLS  MOSUNNY   63  33  32 NW29G38   29.81R
LUBBOCK        MOSUNNY   60  26  27 NW18G24   29.94R
EL PASO        MOSUNNY   53  24  32 W6        30.11F
$$

...MARINE OBSERVATIONS...

STATION/POSITION TIME  SKY/WX   TEMP    WIND        PRES    VSBY  WAVE   SWELL
                                AIR SEA DIR/SP/G                  HT/PER HT/PER
                 (UTC)          (F)     (DEG/KT/KT) (MB)    (MI)  (FT/S) (FT/S)
PORT ARANSAS     2000            72 62  290/ 26/ 32 1008.1S
BUOY 90 E PORT A 1950            69 72  300/ 27/ 35 1004.8         10/ 8
BUOY 45 SE BAFFI 2050            71     290/ 25/ 29 1007.6F         8/ 7
BUOY 200 E PT IS 2050            71 74  290/ 29/ 37 1005.9F        13/10   8/10
BUOY 15 E GALVES 2050            67 66  300/ 23/ 27 1001.6R         6/ 5   2/11
$$




USA.gov is the U.S. government's official web portal to all federal, state and local government web resources and services.